AD8BV Weather Reports


time (UTC)temp
C
wind
direction
speed
KPH
gust
KPH
rain 1hr
cm
rain 24hr
cm
rain mn
cm
humidity
%
barometer
mb
20260503022240 1 276 0.0 0.0 0.00 0.00 0.00 80 1018.2
20260503021737 1 276 0.0 0.0 0.00 0.00 0.00 79 1018.1
20260503021233 1 276 0.0 0.0 0.00 0.00 0.00 79 1018.0
20260503020731 2 276 0.0 0.0 0.00 0.00 0.00 79 1018.3
20260503020228 2 276 0.0 0.0 0.00 0.00 0.00 76 1017.9
20260503015725 2 276 0.0 0.0 0.00 0.00 0.00 75 1017.9
20260503015221 2 276 0.0 0.0 0.00 0.00 0.00 73 1017.9
20260503014717 3 276 0.0 0.0 0.00 0.00 0.00 72 1018.0
20260503014216 3 276 0.0 0.0 0.00 0.00 0.00 68 1017.8
20260503013712 3 276 0.0 0.0 0.00 0.00 0.00 67 1017.9
20260503013210 3 276 0.0 0.0 0.00 0.00 0.00 65 1017.8
20260503012708 4 276 0.0 0.0 0.00 0.00 0.00 65 1017.9
20260503012204 4 277 0.0 1.6 0.00 0.00 0.00 62 1017.9
20260503011701 5 278 0.0 0.0 0.00 0.00 0.00 62 1017.7
20260503011158 5 278 0.0 0.0 0.00 0.00 0.00 61 1017.7
20260503010654 5 278 0.0 0.0 0.00 0.00 0.00 59 1017.6
20260503010151 5 278 0.0 0.0 0.00 0.00 0.00 58 1017.5
20260503005648 5 279 0.0 0.0 0.00 0.00 0.00 57 1017.6
20260503005145 5 285 0.0 0.0 0.00 0.00 0.00 57 1017.6
20260503004641 6 285 0.0 0.0 0.00 0.00 0.00 56 1017.5
20260503004140 6 279 0.0 0.0 0.00 0.00 0.00 54 1017.8
20260503003637 6 273 0.0 0.0 0.00 0.00 0.00 55 1017.4
20260503003134 6 283 0.0 0.0 0.00 0.00 0.00 55 1017.7
20260503002631 7 284 0.0 0.0 0.00 0.00 0.00 54 1017.5
20260503002127 7 286 0.0 0.0 0.00 0.00 0.00 54 1017.4
20260503001623 7 319 1.6 3.2 0.00 0.00 0.00 51 1017.5
20260503001121 7 291 0.0 0.0 0.00 0.00 0.00 50 1017.4
20260503000618 7 301 1.6 1.6 0.00 0.00 0.00 50 1017.3
20260503000115 8 303 1.6 1.6 0.00 0.00 0.00 50 1017.4
20260502235612 8 284 4.8 4.8 0.00 0.00 0.00 49 1017.5
20260502235110 8 281 1.6 3.2 0.00 0.00 0.00 51 1017.4
20260502234605 8 351 0.0 0.0 0.00 0.00 0.00 49 1017.5
20260502234104 8 272 0.0 0.0 0.00 0.00 0.00 51 1017.5
20260502233603 8 305 1.6 1.6 0.00 0.00 0.00 50 1017.6
20260502233101 8 281 1.6 1.6 0.00 0.00 0.00 49 1017.8
20260502232557 8 302 1.6 3.2 0.00 0.00 0.00 50 1017.6
20260502232054 8 301 1.6 1.6 0.00 0.00 0.00 49 1017.6
20260502231551 8 303 1.6 3.2 0.00 0.00 0.00 49 1017.6
20260502231049 9 257 4.8 4.8 0.00 0.00 0.00 45 1017.6
20260502230547 9 283 0.0 1.6 0.00 0.00 0.00 47 1017.7
20260502230045 8 297 0.0 0.0 0.00 0.00 0.00 49 1017.6
20260502225540 8 334 3.2 4.8 0.00 0.00 0.00 48 1017.6
20260502225038 8 349 1.6 3.2 0.00 0.00 0.00 48 1017.6
20260502224534 9 283 0.0 0.0 0.00 0.00 0.00 50 1017.6
20260502224031 9 272 1.6 1.6 0.00 0.00 0.00 48 1017.7
20260502223529 9 345 8.0 9.7 0.00 0.00 0.00 48 1017.7
20260502223027 9 277 0.0 1.6 0.00 0.00 0.00 49 1017.8
20260502222524 10 304 1.6 3.2 0.00 0.00 0.00 46 1017.8
20260502222021 9 234 3.2 3.2 0.00 0.00 0.00 49 1017.8
20260502221516 9 304 3.2 3.2 0.00 0.00 0.00 48 1017.6
20260502221014 9 278 1.6 1.6 0.00 0.00 0.00 46 1017.6
20260502220509 10 259 4.8 8.0 0.00 0.00 0.00 46 1017.7
20260502220006 10 242 1.6 3.2 0.00 0.00 0.00 48 1017.7
20260502215503 9 274 1.6 1.6 0.00 0.00 0.00 51 1017.7
20260502215000 8 29 3.2 3.2 0.00 0.00 0.00 48 1017.8
20260502214457 8 351 3.2 4.8 0.00 0.00 0.00 50 1017.7
20260502213954 8 310 1.6 1.6 0.00 0.00 0.00 51 1017.9
20260502213450 8 268 0.0 1.6 0.00 0.00 0.00 50 1017.7
20260502212949 8 242 1.6 3.2 0.00 0.00 0.00 51 1017.6
20260502212448 9 283 1.6 3.2 0.00 0.00 0.00 49 1017.8
20260502211944 9 267 1.6 3.2 0.00 0.00 0.00 51 1017.8
20260502211440 9 291 3.2 4.8 0.00 0.00 0.00 48 1017.9
20260502210938 10 308 0.0 0.0 0.00 0.00 0.00 51 1017.8
20260502210434 9 359 3.2 3.2 0.00 0.00 0.00 50 1017.9
20260502205932 9 228 0.0 3.2 0.00 0.00 0.00 49 1017.8
20260502205428 10 316 0.0 1.6 0.00 0.00 0.00 47 1017.8
20260502204925 10 322 3.2 3.2 0.00 0.00 0.00 47 1017.9
20260502204422 10 331 1.6 3.2 0.00 0.00 0.00 46 1018.1
20260502203920 9 308 1.6 3.2 0.00 0.00 0.00 51 1018.0
20260502203417 8 281 0.0 1.6 0.00 0.00 0.00 50 1018.2
20260502202912 8 218 3.2 3.2 0.00 0.00 0.00 55 1018.2
20260502202410 8 263 1.6 3.2 0.00 0.00 0.00 52 1018.2
20260502201908 8 302 3.2 3.2 0.00 0.00 0.00 51 1018.2
20260502201404 8 262 1.6 3.2 0.00 0.00 0.00 48 1018.2
20260502200901 8 341 4.8 4.8 0.00 0.00 0.00 49 1018.2
20260502200356 9 296 0.0 1.6 0.00 0.00 0.00 46 1018.4
20260502195854 8 326 1.6 3.2 0.00 0.00 0.00 49 1018.5
20260502195351 9 285 3.2 3.2 0.00 0.00 0.00 51 1018.6
20260502194848 9 289 3.2 3.2 0.00 0.00 0.00 45 1018.5
20260502194344 9 270 3.2 4.8 0.00 0.00 0.00 50 1018.7
20260502193840 9 298 1.6 1.6 0.00 0.00 0.00 48 1018.5
20260502193337 9 301 3.2 3.2 0.00 0.00 0.00 49 1018.8
20260502192833 8 263 1.6 1.6 0.00 0.00 0.00 51 1018.7
20260502192330 8 270 0.0 1.6 0.00 0.00 0.00 50 1018.7
20260502191827 8 340 3.2 3.2 0.00 0.00 0.00 48 1018.8
20260502191325 9 328 3.2 4.8 0.00 0.00 0.00 47 1018.9
20260502190822 9 28 3.2 4.8 0.00 0.00 0.00 48 1019.1
20260502190320 8 289 1.6 3.2 0.00 0.00 0.00 47 1019.3
20260502185815 8 194 4.8 8.0 0.00 0.00 0.00 50 1019.1
20260502185311 8 274 1.6 3.2 0.00 0.00 0.00 47 1019.1
20260502184808 8 307 1.6 3.2 0.00 0.00 0.00 51 1019.2
20260502184303 8 329 6.4 11.3 0.00 0.00 0.00 49 1019.2
20260502183800 8 267 3.2 4.8 0.00 0.00 0.00 47 1019.4
20260502183256 9 332 3.2 3.2 0.00 0.00 0.00 48 1019.1
20260502182752 10 298 3.2 3.2 0.00 0.00 0.00 46 1019.3
20260502182248 9 218 3.2 3.2 0.00 0.00 0.00 50 1019.4
20260502181744 8 290 1.6 1.6 0.00 0.00 0.00 53 1019.1
20260502181243 8 278 0.0 1.6 0.00 0.00 0.00 51 1019.4
20260502180740 8 333 0.0 1.6 0.00 0.00 0.00 46 1019.1
20260502180238 10 273 3.2 4.8 0.00 0.00 0.00 43 1019.4
20260502170202 7 275 4.8 4.8 0.00 0.00 0.00 48 1020.0
20260502164148 7 329 3.2 3.2 0.00 0.00 0.00 53 1020.2
20260502163644 7 257 4.8 4.8 0.00 0.00 0.00 51 1019.9
20260502163141 7 9 1.6 3.2 0.00 0.00 0.00 50 1020.1
20260502162638 7 334 4.8 4.8 0.00 0.00 0.00 46 1020.1
20260502162135 7 6 6.4 9.7 0.00 0.00 0.00 50 1019.9
20260502161632 7 8 4.8 8.0 0.00 0.00 0.00 48 1019.9
20260502161129 8 135 3.2 3.2 0.00 0.00 0.00 45 1020.0
20260502160627 7 265 3.2 3.2 0.00 0.00 0.00 52 1020.2
20260502160126 6 342 3.2 3.2 0.00 0.00 0.00 50 1019.9
20260502152040 6 312 1.6 1.6 0.00 0.00 0.00 52 1020.2
20260502151537 5 331 1.6 3.2 0.00 0.00 0.00 53 1020.1
20260502151034 6 260 0.0 1.6 0.00 0.00 0.00 53 1020.2
20260502150531 6 348 1.6 1.6 0.00 0.00 0.00 54 1020.4
20260502130416 3 306 1.6 1.6 0.00 0.00 0.00 75 1020.4
20260502123359 2 313 1.6 1.6 0.00 0.00 0.00 80 1020.2
20260502122856 2 314 1.6 1.6 0.00 0.00 0.00 81 1020.3
20260502122352 2 320 3.2 4.8 0.00 0.00 0.00 81 1020.2
20260502121850 2 242 1.6 4.8 0.00 0.00 0.00 81 1020.3
20260502121347 1 306 1.6 1.6 0.00 0.00 0.00 83 1020.3
20260502120845 1 277 0.0 0.0 0.00 0.00 0.00 84 1020.2
20260502120340 1 277 3.2 3.2 0.00 0.00 0.00 84 1020.1
20260502115838 1 275 0.0 0.0 0.00 0.00 0.00 84 1020.1
20260502115335 1 276 3.2 3.2 0.00 0.00 0.00 85 1020.1
20260502114832 0 305 0.0 0.0 0.00 0.00 0.00 87 1019.9
20260502114329 0 326 1.6 3.2 0.00 0.00 0.00 89 1020.1
20260502113826 0 265 0.0 0.0 0.00 0.00 0.00 91 1019.9
20260502113323 0 265 0.0 0.0 0.00 0.00 0.00 92 1020.1
20260502112821 0 263 0.0 0.0 0.00 0.00 0.00 93 1019.9
20260502112318 -1 262 0.0 0.0 0.00 0.00 0.00 93 1019.8
20260502111816 -1 262 0.0 0.0 0.00 0.00 0.00 93 1019.9
20260502111313 -1 260 0.0 0.0 0.00 0.00 0.00 93 1019.5
20260502110810 -1 260 0.0 0.0 0.00 0.00 0.00 94 1019.5
20260502110309 -1 260 0.0 0.0 0.00 0.00 0.00 94 1019.7
20260502105806 -2 260 0.0 0.0 0.00 0.00 0.00 94 1019.5
20260502105305 -2 260 0.0 0.0 0.00 0.00 0.00 93 1019.5
20260502104800 -2 259 0.0 0.0 0.00 0.00 0.00 93 1019.5
20260502104257 -2 259 0.0 0.0 0.00 0.00 0.00 93 1019.7
20260502103754 -2 237 0.0 0.0 0.00 0.00 0.00 93 1019.5
20260502103252 -2 273 0.0 0.0 0.00 0.00 0.00 93 1019.5
20260502102749 -2 273 0.0 0.0 0.00 0.00 0.00 93 1019.5
20260502102245 -2 273 0.0 0.0 0.00 0.00 0.00 93 1019.4
20260502101744 -2 273 0.0 0.0 0.00 0.00 0.00 93 1019.5
20260502101241 -1 273 0.0 0.0 0.00 0.00 0.00 93 1019.4
20260502100739 -1 273 0.0 0.0 0.00 0.00 0.00 93 1019.4
20260502100238 -1 273 0.0 0.0 0.00 0.00 0.00 93 1019.7
20260502091212 -1 273 0.0 0.0 0.00 0.00 0.00 91 1019.1
20260502090709 -1 273 0.0 0.0 0.00 0.00 0.00 91 1019.3
20260502090206 -1 273 0.0 0.0 0.00 0.00 0.00 90 1019.2
20260502071101 0 284 0.0 1.6 0.00 0.00 0.00 83 1018.8
20260502070559 0 285 0.0 0.0 0.00 0.00 0.00 85 1018.8
20260502070057 0 285 0.0 0.0 0.00 0.00 0.00 84 1018.8
20260502065555 0 285 0.0 0.0 0.00 0.00 0.00 84 1018.8
20260502065053 0 286 0.0 0.0 0.00 0.00 0.00 82 1019.0
20260502064551 0 286 0.0 0.0 0.00 0.00 0.00 80 1018.9
20260502064048 1 285 0.0 0.0 0.00 0.00 0.00 82 1018.8
20260502063545 1 286 0.0 0.0 0.00 0.00 0.00 81 1018.8
20260502063043 1 286 0.0 0.0 0.00 0.00 0.00 80 1018.9
20260502062540 1 294 0.0 1.6 0.00 0.00 0.00 78 1019.0
20260502062038 1 273 0.0 0.0 0.00 0.00 0.00 79 1019.1
20260502061536 2 273 0.0 0.0 0.00 0.00 0.00 80 1019.1
20260502061033 2 273 0.0 0.0 0.00 0.00 0.00 76 1019.0
20260502060528 2 273 0.0 0.0 0.00 0.00 0.00 74 1019.2
20260502060025 2 273 0.0 0.0 0.00 0.00 0.00 72 1019.2
20260502055522 3 273 0.0 0.0 0.00 0.00 0.00 72 1019.0
20260502055021 3 272 1.6 1.6 0.00 0.00 0.00 73 1019.2
20260502054519 3 286 0.0 0.0 0.00 0.00 0.00 70 1019.0
20260502054016 3 291 0.0 0.0 0.00 0.00 0.00 70 1019.2
20260502053513 3 275 1.6 3.2 0.00 0.00 0.00 70 1019.1
20260502053011 3 305 1.6 1.6 0.00 0.00 0.00 70 1019.1
20260502052509 3 270 0.0 0.0 0.00 0.00 0.00 72 1019.3
20260502052007 3 286 0.0 1.6 0.00 0.00 0.00 73 1019.0
20260502051505 3 279 0.0 0.0 0.00 0.00 0.00 73 1019.0
20260502051001 3 285 0.0 0.0 0.00 0.00 0.00 72 1019.1
20260502050458 3 273 0.0 0.0 0.00 0.00 0.00 71 1019.0
20260502045955 3 271 0.0 1.6 0.00 0.00 0.00 70 1019.1
20260502045452 3 285 0.0 0.0 0.00 0.00 0.00 70 1019.2
20260502044949 3 296 0.0 1.6 0.00 0.00 0.00 69 1019.1
20260502044444 4 272 0.0 0.0 0.00 0.00 0.00 71 1018.9
20260502043942 4 277 0.0 0.0 0.00 0.00 0.00 69 1018.7
20260502043439 4 293 0.0 0.0 0.00 0.00 0.00 66 1018.8
20260502042938 4 309 4.8 4.8 0.00 0.00 0.00 67 1018.6
20260502042436 5 294 0.0 1.6 0.00 0.00 0.00 67 1018.7
20260502041933 5 318 4.8 4.8 0.00 0.00 0.00 65 1018.9
20260502041431 5 298 3.2 3.2 0.00 0.00 0.00 65 1018.5
20260502040928 5 354 3.2 3.2 0.00 0.00 0.00 65 1018.6
20260502040424 5 319 3.2 3.2 0.00 0.00 0.00 65 1018.4
20260502035920 5 285 0.0 1.6 0.00 0.00 0.00 68 1018.7
20260502035417 5 349 4.8 4.8 0.00 0.00 0.00 66 1018.3
20260502034915 5 312 1.6 1.6 0.00 0.00 0.00 67 1018.4
20260502034414 5 320 1.6 3.2 0.00 0.00 0.00 68 1018.6
20260502033911 5 315 4.8 4.8 0.00 0.00 0.00 68 1018.4
20260502033409 5 297 1.6 1.6 0.00 0.00 0.00 69 1018.3
20260502032905 5 269 1.6 3.2 0.00 0.00 0.00 70 1018.5
20260502032401 5 349 3.2 3.2 0.00 0.00 0.00 68 1018.5
20260502031859 5 354 3.2 4.8 0.00 0.00 0.00 68 1018.5
20260502031357 5 317 1.6 3.2 0.00 0.00 0.00 70 1018.4
20260502030855 5 306 0.0 1.6 0.00 0.00 0.00 72 1018.3
20260502030353 4 278 4.8 4.8 0.00 0.00 0.00 72 1018.3
20260502025850 4 339 3.2 3.2 0.00 0.00 0.00 77 1018.2
20260502025347 3 328 3.2 3.2 0.00 0.00 0.00 78 1018.2
20260502024845 3 288 0.0 0.0 0.00 0.00 0.00 81 1018.2
20260502024343 2 260 1.6 1.6 0.00 0.00 0.00 89 1018.3
20260502023841 2 273 0.0 0.0 0.00 0.00 0.00 90 1018.1
20260502023338 2 273 0.0 0.0 0.00 0.00 0.00 90 1018.1
20260502022836 2 273 0.0 0.0 0.00 0.00 0.00 91 1018.1
20260502022332 2 273 0.0 0.0 0.00 0.00 0.00 90 1018.0